TimeCST,TemperatureF,Dew PointF,Humidity,Sea Level PressureIn,VisibilityMPH,Wind Direction,Wind SpeedMPH,Gust SpeedMPH,PrecipitationIn,Events,Conditions,WindDirDegrees,DateUTC
12:15 AM,33.8,30.2,87,29.93,5.0,Calm,Calm,-,N/A,,Scattered Clouds,0,2013-02-07 06:15:00
12:35 AM,33.8,28.4,81,29.94,5.0,Calm,Calm,-,N/A,,Scattered Clouds,0,2013-02-07 06:35:00
12:55 AM,33.8,30.2,87,29.94,7.0,NW,5.8,-,N/A,,Scattered Clouds,310,2013-02-07 06:55:00
1:15 AM,33.8,28.4,81,29.94,1.2,NW,10.4,-,N/A,,Mostly Cloudy,320,2013-02-07 07:15:00
1:35 AM,30.2,26.6,86,29.95,2.0,NW,11.5,-,N/A,,Overcast,320,2013-02-07 07:35:00
1:55 AM,26.6,21.2,80,29.97,4.0,NW,12.7,-,N/A,,Haze,310,2013-02-07 07:55:00
2:15 AM,26.6,19.4,74,29.98,4.0,NW,12.7,-,N/A,,Haze,320,2013-02-07 08:15:00
2:35 AM,24.8,19.4,80,29.98,4.0,NW,10.4,-,N/A,,Haze,320,2013-02-07 08:35:00
2:55 AM,24.8,19.4,80,29.99,4.0,NW,10.4,-,N/A,,Haze,320,2013-02-07 08:55:00
3:15 AM,24.8,19.4,80,29.99,3.0,NW,10.4,-,N/A,,Haze,320,2013-02-07 09:15:00
3:35 AM,24.8,19.4,80,29.99,1.8,NW,11.5,-,N/A,,Overcast,310,2013-02-07 09:35:00
3:55 AM,24.8,21.2,86,30.00,1.5,NW,13.8,-,N/A,,Overcast,310,2013-02-07 09:55:00
4:14 AM,24.8,21.2,86,30.00,2.0,NW,11.5,-,N/A,,Overcast,310,2013-02-07 10:14:00
4:35 AM,24.8,21.2,86,29.99,2.5,Calm,Calm,-,N/A,,Overcast,0,2013-02-07 10:35:00
4:55 AM,24.8,21.2,86,30.00,2.5,NW,10.4,-,N/A,,Overcast,320,2013-02-07 10:55:00
5:15 AM,26.6,21.2,80,30.01,2.5,NW,13.8,-,N/A,,Overcast,320,2013-02-07 11:15:00
5:35 AM,26.6,21.2,80,30.01,2.5,NW,16.1,-,N/A,,Overcast,320,2013-02-07 11:35:00
5:55 AM,26.6,21.2,80,30.01,4.0,NNW,16.1,-,N/A,,Haze,330,2013-02-07 11:55:00
6:15 AM,26.6,21.2,80,30.01,4.0,NNW,15.0,18.4,N/A,,Haze,330,2013-02-07 12:15:00
6:35 AM,26.6,21.2,80,30.01,4.0,NNW,12.7,-,N/A,,Haze,330,2013-02-07 12:35:00
6:55 AM,26.6,21.2,80,30.02,4.0,NNW,10.4,-,N/A,,Haze,330,2013-02-07 12:55:00
7:15 AM,26.6,21.2,80,30.02,3.0,NNW,12.7,-,N/A,,Haze,330,2013-02-07 13:15:00
7:35 AM,26.6,21.2,80,30.03,3.0,NNW,11.5,-,N/A,,Haze,330,2013-02-07 13:35:00
7:55 AM,26.6,21.2,80,30.05,3.0,NW,12.7,-,N/A,,Haze,320,2013-02-07 13:55:00
8:15 AM,26.6,21.2,80,30.06,2.5,NNW,10.4,-,N/A,,Overcast,330,2013-02-07 14:15:00
8:35 AM,26.6,21.2,80,30.07,1.5,NNW,10.4,-,N/A,,Overcast,330,2013-02-07 14:35:00
8:55 AM,26.6,21.2,80,30.08,1.8,NNW,10.4,-,N/A,,Overcast,330,2013-02-07 14:55:00
9:15 AM,26.6,21.2,80,30.08,1.5,NNW,10.4,-,N/A,,Overcast,330,2013-02-07 15:15:00
9:35 AM,26.6,21.2,80,30.09,1.5,NW,15.0,-,N/A,,Overcast,320,2013-02-07 15:35:00
9:55 AM,26.6,21.2,80,30.09,1.5,NNW,12.7,-,N/A,,Overcast,330,2013-02-07 15:55:00
10:15 AM,26.6,21.2,80,30.09,1.2,NNW,12.7,18.4,N/A,,Overcast,330,2013-02-07 16:15:00
10:35 AM,26.6,21.2,80,30.09,1.5,NNW,13.8,-,N/A,,Overcast,330,2013-02-07 16:35:00
10:55 AM,26.6,21.2,80,30.10,1.8,NNW,13.8,18.4,N/A,,Overcast,330,2013-02-07 16:55:00
11:15 AM,26.6,21.2,80,30.11,1.8,NNW,12.7,-,N/A,,Haze,330,2013-02-07 17:15:00
11:35 AM,26.6,23.0,86,30.11,2.0,NNW,12.7,-,N/A,,Overcast,330,2013-02-07 17:35:00
11:55 AM,26.6,23.0,86,30.11,2.0,NNW,12.7,-,N/A,,Overcast,330,2013-02-07 17:55:00
12:15 PM,26.6,21.2,80,30.11,2.0,NNW,15.0,-,N/A,,Haze,330,2013-02-07 18:15:00
12:35 PM,26.6,23.0,86,30.10,2.0,NNW,15.0,-,N/A,,Overcast,340,2013-02-07 18:35:00
12:55 PM,26.6,23.0,86,30.10,2.5,NNW,11.5,19.6,N/A,,Overcast,330,2013-02-07 18:55:00
1:14 PM,28.4,23.0,80,30.10,3.0,NNW,12.7,17.3,N/A,,Haze,330,2013-02-07 19:14:00
1:35 PM,28.4,23.0,80,30.10,4.0,NNW,11.5,-,N/A,,Haze,340,2013-02-07 19:35:00
1:55 PM,28.4,23.0,80,30.10,3.0,NNW,12.7,17.3,N/A,,Haze,340,2013-02-07 19:55:00
2:15 PM,28.4,23.0,80,30.10,3.0,NNW,11.5,-,N/A,,Haze,330,2013-02-07 20:15:00
2:35 PM,28.4,23.0,80,30.11,4.0,NNW,11.5,-,N/A,,Haze,340,2013-02-07 20:35:00
2:55 PM,28.4,23.0,80,30.11,4.0,NNW,12.7,-,N/A,,Haze,330,2013-02-07 20:55:00
3:15 PM,28.4,23.0,80,30.12,5.0,NNW,11.5,-,N/A,,Haze,330,2013-02-07 21:15:00
3:35 PM,28.4,23.0,80,30.13,7.0,NNW,12.7,17.3,N/A,,Overcast,340,2013-02-07 21:35:00
3:55 PM,28.4,23.0,80,30.13,7.0,NNW,15.0,-,N/A,,Overcast,330,2013-02-07 21:55:00
4:15 PM,28.4,23.0,80,30.13,10.0,NNW,12.7,16.1,N/A,,Overcast,340,2013-02-07 22:15:00
4:35 PM,28.4,23.0,80,30.15,10.0,NNW,11.5,-,N/A,,Overcast,330,2013-02-07 22:35:00
4:55 PM,28.4,23.0,80,30.15,10.0,NNW,11.5,-,N/A,,Overcast,340,2013-02-07 22:55:00
5:15 PM,28.4,23.0,80,30.16,10.0,NNW,10.4,-,N/A,,Overcast,330,2013-02-07 23:15:00
5:35 PM,28.4,23.0,80,30.17,10.0,NNW,10.4,-,N/A,,Overcast,340,2013-02-07 23:35:00
5:55 PM,28.4,23.0,80,30.18,10.0,NNW,9.2,-,N/A,,Overcast,330,2013-02-07 23:55:00
6:15 PM,28.4,23.0,80,30.19,10.0,NNW,8.1,-,N/A,,Overcast,330,2013-02-08 00:15:00
6:35 PM,28.4,21.2,74,30.20,10.0,NNW,9.2,-,N/A,,Overcast,330,2013-02-08 00:35:00
6:55 PM,28.4,23.0,80,30.21,10.0,NW,11.5,-,N/A,,Overcast,310,2013-02-08 00:55:00
7:14 PM,28.4,23.0,80,30.21,10.0,NNW,11.5,-,N/A,,Overcast,330,2013-02-08 01:14:00
7:35 PM,28.4,21.2,74,30.21,10.0,North,11.5,-,N/A,,Overcast,350,2013-02-08 01:35:00
7:55 PM,28.4,21.2,74,30.22,10.0,NNW,12.7,-,N/A,,Overcast,340,2013-02-08 01:55:00
8:15 PM,28.4,21.2,74,30.23,10.0,North,12.7,-,N/A,,Overcast,360,2013-02-08 02:15:00
8:35 PM,28.4,19.4,69,30.23,10.0,North,11.5,-,N/A,,Overcast,350,2013-02-08 02:35:00
8:55 PM,28.4,19.4,69,30.24,10.0,NNW,10.4,-,N/A,,Overcast,340,2013-02-08 02:55:00
9:15 PM,28.4,21.2,74,30.24,10.0,NNW,8.1,-,N/A,,Overcast,330,2013-02-08 03:15:00
9:35 PM,28.4,21.2,74,30.24,10.0,Calm,Calm,-,N/A,,Overcast,0,2013-02-08 03:35:00
9:55 PM,28.4,21.2,74,30.24,10.0,Calm,Calm,-,N/A,,Overcast,0,2013-02-08 03:55:00
10:15 PM,28.4,21.2,74,30.24,10.0,Calm,Calm,-,N/A,,Overcast,0,2013-02-08 04:15:00
10:35 PM,28.4,21.2,74,30.24,10.0,Calm,Calm,-,N/A,,Overcast,0,2013-02-08 04:35:00
10:55 PM,26.6,19.4,74,30.24,10.0,Calm,Calm,-,N/A,,Overcast,0,2013-02-08 04:55:00
11:15 PM,26.6,21.2,80,30.24,10.0,Calm,Calm,-,N/A,,Overcast,0,2013-02-08 05:15:00
11:35 PM,26.6,19.4,74,30.25,10.0,Calm,Calm,-,N/A,,Overcast,0,2013-02-08 05:35:00
11:55 PM,26.6,19.4,74,30.26,10.0,NNW,10.4,-,N/A,,Overcast,330,2013-02-08 05:55:00